Valladolid Airport, Spain

9:47 AM CEST on March 28, 2017 (GMT +0200)
Valladolid Airport

Weather History for LEVD - August, 2013

Change the Weather History Date:

Saturday, August 17, 2013

  Actual Average Record
Temperature  
Mean Temperature 68 °F -  
Max Temperature 84 °F - - ()
Min Temperature 53 °F - - ()
Cooling Degree Days 4    
Growing Degree Days 18 (Base 50)    
Moisture  
Dew Point 50 °F    
Average Humidity 49    
Maximum Humidity 94    
Minimum Humidity 22    
Precipitation  
Precipitation 0.00 in - - ()
Sea Level Pressure  
Sea Level Pressure 30.13 in    
Wind  
Wind Speed 6 mph ()    
Max Wind Speed 10 mph    
Max Gust Speed -    
Visibility 6.2 miles    
Events      
T = Trace of Precipitation, MM = Missing Value Source: Averaged Metar Reports

Daily Weather History Graph

Daily Weather History Graph

Search for Another Location

Airport or City:

Trip Planner

Search our weather history database for the weather conditions in past years. The results will help you decide how hot, cold, wet, or windy it might be!

Date:

Astronomy

Aug. 17, 2013 Rise Set
Actual Time 7:29 AM CEST 9:16 PM CEST
Civil Twilight 7:00 AM CEST 9:45 PM CEST
Nautical Twilight 6:23 AM CEST 10:21 PM CEST
Astronomical Twilight 5:45 AM CEST 11:00 PM CEST
Moon 6:20 PM CEST (8/17) 3:16 AM CEST (8/17)
Length of Visible Light 14h 45m
Length of Day
13h 46m
Waxing Gibbous, 82% of the Moon is Illuminated
Aug 17
Waxing Gibbous
Aug 21
Full
Aug 28
Last Quarter
Sep 5
New
Sep 12
First Quarter

Hourly Weather History & Observations

Time (CEST) Temp. Dew Point Humidity Pressure Visibility Wind Dir Wind Speed Gust Speed Precip Events Conditions
7:00 AM 55.4 °F 51.8 °F 88% 30.15 in - NE 9.2 mph - N/A   Clear
7:30 AM 55.4 °F 51.8 °F 88% 30.15 in - NNE 8.1 mph - N/A   Clear
8:00 AM 53.6 °F 51.8 °F 94% 30.15 in - NE 8.1 mph - N/A   Clear
8:30 AM 57.2 °F 53.6 °F 88% 30.15 in - NE 6.9 mph - N/A   Clear
9:00 AM 59.0 °F 53.6 °F 82% 30.15 in - NE 9.2 mph - N/A   Clear
9:30 AM 60.8 °F 53.6 °F 77% 30.18 in - NE 10.4 mph - N/A   Clear
10:00 AM 62.6 °F 55.4 °F 77% 30.15 in - ENE 6.9 mph - N/A   Clear
10:30 AM 64.4 °F 55.4 °F 73% 30.15 in - ENE 8.1 mph - N/A   Clear
11:00 AM 68.0 °F 55.4 °F 64% 30.18 in - East 6.9 mph - N/A   Clear
11:30 AM 68.0 °F 57.2 °F 68% 30.18 in - ENE 9.2 mph - N/A   Clear
12:00 PM 71.6 °F 57.2 °F 60% 30.18 in - East 6.9 mph - N/A   Clear
12:30 PM 71.6 °F 55.4 °F 57% 30.15 in - ENE 4.6 mph - N/A   Clear
1:00 PM 75.2 °F 53.6 °F 47% 30.15 in - ENE 2.3 mph - N/A   Clear
1:30 PM 77.0 °F 53.6 °F 44% 30.15 in - NE 5.8 mph - N/A   Clear
2:00 PM 78.8 °F 51.8 °F 39% 30.15 in - NE 4.6 mph - N/A   Clear
2:30 PM 80.6 °F 50.0 °F 34% 30.12 in - WNW 3.5 mph - N/A   Clear
3:00 PM 80.6 °F 50.0 °F 34% 30.12 in - North 3.5 mph - N/A   Clear
3:30 PM 82.4 °F 50.0 °F 32% 30.12 in - NW 4.6 mph - N/A   Clear
4:00 PM 82.4 °F 48.2 °F 30% 30.12 in - NNE 4.6 mph - N/A   Clear
4:30 PM 84.2 °F 46.4 °F 27% 30.12 in - West 2.3 mph - N/A   Clear
5:00 PM 84.2 °F 44.6 °F 25% 30.09 in - Variable 2.3 mph - N/A   Clear
5:30 PM 84.2 °F 44.6 °F 25% 30.09 in 6.2 mi North 3.5 mph - N/A   Partly Cloudy
6:00 PM 84.2 °F 42.8 °F 23% 30.09 in 6.2 mi NNW 3.5 mph - N/A   Partly Cloudy
6:30 PM 84.2 °F 44.6 °F 25% 30.09 in 6.2 mi NW 6.9 mph - N/A   Partly Cloudy
7:00 PM 84.2 °F 42.8 °F 23% 30.09 in 6.2 mi NNW 4.6 mph - N/A   Partly Cloudy
7:30 PM 84.2 °F 41.0 °F 22% 30.09 in 6.2 mi NNW 5.8 mph - N/A   Partly Cloudy
8:00 PM 82.4 °F 42.8 °F 25% 30.09 in 6.2 mi NNW 4.6 mph - N/A   Partly Cloudy
8:30 PM 80.6 °F 42.8 °F 26% 30.09 in 6.2 mi NNW 4.6 mph - N/A   Partly Cloudy
9:00 PM 78.8 °F 44.6 °F 30% 30.09 in - NNW 3.5 mph - N/A   Clear
9:30 PM 73.4 °F 44.6 °F 36% 30.09 in - NNW 4.6 mph - N/A   Clear